SLLPSLCB

Guest
Details From SLLP - La Paz
To SLCB - JORGE WILSTERMAN
Flight Number -
Tags generated
Created
Modified
Stats Distance 128 nm / 238 km
Max Altitude 19,000 ft / 5,791 m
Waypoints 4
Social Downloads 0
Likes 0
Share VATSIM

Download

Looking for another format? Having issues loading an existing format? Contact us
Advertisement - Login to hide

Notes

Basic altitude profile: - Ascent Rate: 2500ft/min - Ascent Speed: 250kts - Cruise Altitude: 25000ft - Cruise Speed: 420kts - Descent Rate: 1500ft/min - Descent Speed: 250kts Options: - Use NATs: no - Use PACOTS: no - Use low airways: yes - Use high airways: yes

Route

SLLP TANOR W11 CBA SLCB

ID Type Via Altitude Latitude Longitude Leg Dist Tot Dist Heading (true) Name
O SLLP APT - 0 ft / 0 m -16.50936˚ -68.19055˚ - 0 nm - La Paz
TANOR FIX - 7,600 ft / 2,316 m -17.22657˚ -66.76684˚ 92 nm 92 nm 118° / 118° -
CBA VOR W11 (AWY-LO) 19,000 ft / 5,791 m -17.42126˚ -66.17904˚ 35 nm 128 nm 109° / 109° COCHABAMBA VOR-DME
O SLCB APT - 0 ft / 0 m -17.42039˚ -66.17717˚ 0 nm 128 nm 64° / 64° JORGE WILSTERMAN

Altitude Profile

Advertisement - Login to hide

SLLP

Details ICAO SLLP (LPB)
Name La Paz
Region Bolivia
Timezone America/La_Paz (UTC-4.0)
Stats Elevation 13,313 ft / 4,058 m (AMSL)
Location -16.509356° -68.190551°
Runways 2
Magnetic Variation 7.917° W

METAR

SLLP 151400Z 10010KT 040V130 9999 FEW015 BKN200 12/M00 Q1039

Decode

TAF

Not found

Departure Runways

ID Width Length Bearing (true) Bearing (mag) Surface Threshold Offset Overrun Length
10 151 ft / 46 m 13,106 ft / 3,995 m 91.90° 99.82° Concrete 0 ft / 0 m 200 ft / 61 m
10L 300 ft / 91 m 6,718 ft / 2,048 m 97.72° 105.64° Dirt 0 ft / 0 m 0 ft / 0 m
28 151 ft / 46 m 13,106 ft / 3,995 m 271.89° 279.81° Concrete 0 ft / 0 m 0 ft / 0 m
28R 300 ft / 91 m 6,718 ft / 2,048 m 277.71° 285.63° Dirt 0 ft / 0 m 0 ft / 0 m

SLCB

Details ICAO SLCB (CBB)
Name JORGE WILSTERMAN
Region Bolivia
Timezone America/La_Paz (UTC-4.0)
Stats Elevation 8,360 ft / 2,548 m (AMSL)
Location -17.420390° -66.177166°
Runways 2
Magnetic Variation 9.394° W

METAR

SLCB 151400Z 00000KT 9999 SCT030 BKN200 22/06 Q1028

Decode

TAF

Not found

Destination Runways

ID Width Length Bearing (true) Bearing (mag) Surface Threshold Offset Overrun Length
04 148 ft / 45 m 8,716 ft / 2,657 m 37.26° 46.65° Asphalt 0 ft / 0 m 0 ft / 0 m
14 148 ft / 45 m 12,480 ft / 3,804 m 132.10° 141.49° Asphalt 328 ft / 100 m 199 ft / 61 m
22 148 ft / 45 m 8,716 ft / 2,657 m 217.25° 226.64° Asphalt 732 ft / 223 m 0 ft / 0 m
32 148 ft / 45 m 12,480 ft / 3,804 m 312.09° 321.48° Asphalt 984 ft / 300 m 201 ft / 61 m

Approach Navaids

Runway Type Ident Frequency Range Bearing (true) Bearing (mag) Slope Elevation
32 Localiser ILCO 110.50 MHz 18 nm / 33 km 311.99° 321.38° - 8,360 ft / 2,548 m (AMSL)
32 Glidescope ILCO 110.50 MHz 10 nm / 19 km 312.10° 321.49° 3.30° 8,360 ft / 2,548 m (AMSL)
32 DME ILCO 110.50 MHz 18 nm / 33 km - - - 8,360 ft / 2,548 m (AMSL)

Popular Alternatives